Tracking 25620 objects as of 18-May-2022
HD Live streaming from Space Station
objects crossing your sky now

STARLINK-1450

Track STARLINK-1450 now!
10-day predictions
STARLINK-1450 is classified as:


NORAD ID: 45667
Int'l Code: 2020-035L
Perigee: 550.7 km
Apogee: 559.3 km
Inclination: 53.1 °
Period: 95.6 minutes
Semi major axis: 6925 km
RCS: Unknown
Launch date: June 4, 2020
Source: United States (US)
Launch site: AIR FORCE EASTERN TEST RANGE (AFETR)
aabbcc
Your satellite tracking list
Your tracking list is empty




NASA's NSSDC Master Catalog

Two Line Element Set (TLE):
1 45667U 20035L   22138.40313743 -.00024453  00000-0 -16367-2 0  9994
2 45667  53.0537 192.3377 0006202 352.9000   7.1900 15.06192906109022
Source of the keplerian elements: AFSPC